Location: Alphen
(52.1351°N, 4.6549°E)
Time: 02:04:25
(UTC+00:00)

CZ-4B R/B - Pass Details

Date: 27 January 2021
Orbit: 486 x 652 km, 97.9° (Epoch: 26 February)

Event Time Altitude Azimuth Distance (km) Brightness Sun altitude
Rises 05:04:26 0° 16° (NNE) 2,580 6.4 -22.0°
Reaches altitude 10° 05:06:30 10° 19° (NNE) 1,703 5.5 -21.7°
Maximum altitude 05:10:08 66° 103° (ESE) 557 3.0 -21.1°
Drops below altitude 10° 05:13:52 10° 186° (S) 1,749 5.3 -20.5°
Sets 05:16:01 0° 189° (S) 2,657 6.3 -20.2°
